Puyallup, WA

9:49 PM PST on February 19, 2017 (GMT -0800)
Pierce County - Thun Field

Weather History for KPLU - November, 2012

Change the Weather History Date:

Friday, November 2, 2012

  Actual Average (KTCM) Record (KTCM)
Temperature  
Mean Temperature 52 °F -  
Max Temperature 59 °F 53 °F 68 °F (1970)
Min Temperature 46 °F 34 °F 17 °F (2002)
Degree Days  
Heating Degree Days 12    
Growing Degree Days 2 (Base 50)    
Moisture  
Dew Point 51 °F    
Average Humidity 94    
Maximum Humidity 100    
Minimum Humidity 72    
Precipitation  
Precipitation 0.07 in - - ()
Sea Level Pressure  
Sea Level Pressure 30.01 in    
Wind  
Wind Speed 0 mph (ESE)    
Max Wind Speed 4 mph    
Max Gust Speed -    
Visibility 9 miles    
Events Rain    
Averages and records for this station are not official NWS values.
T = Trace of Precipitation, MM = Missing Value Source: NWS Daily Summary

Daily Weather History Graph

Daily Weather History Graph

Search for Another Location

Airport or City:

Trip Planner

Search our weather history database for the weather conditions in past years. The results will help you decide how hot, cold, wet, or windy it might be!

Date:

Astronomy

Nov. 02, 2012 Rise Set
Actual Time 7:54 AM PDT 5:50 PM PDT
Civil Twilight 7:22 AM PDT 6:22 PM PDT
Nautical Twilight 6:46 AM PDT 6:58 PM PDT
Astronomical Twilight 6:10 AM PDT 7:33 PM PDT
Moon 8:34 PM PDT (11/2) 11:27 AM PDT (11/2)
Length of Visible Light 10h 59m
Length of Day
9h 55m
Waning Gibbous, 86% of the Moon is Illuminated
Nov 2
Waning Gibbous
Nov 6
Last Quarter
Nov 13
New
Nov 20
First Quarter
Nov 28
Full

Hourly Weather History & Observations

Time (PDT) Temp. Dew Point Humidity Pressure Visibility Wind Dir Wind Speed Gust Speed Precip Events Conditions
12:15 AM 51.8 °F 50.0 °F 94% 30.02 in 10.0 mi Calm Calm - N/A   Overcast
12:35 AM 51.8 °F 50.0 °F 94% 30.03 in 10.0 mi Calm Calm - N/A   Mostly Cloudy
12:55 AM 50.0 °F 50.0 °F 100% 30.03 in 10.0 mi Calm Calm - N/A   Mostly Cloudy
1:15 AM 50.0 °F 50.0 °F 100% 30.04 in 10.0 mi Calm Calm - N/A   Mostly Cloudy
1:35 AM 50.0 °F 50.0 °F 100% 30.04 in 10.0 mi Calm Calm - N/A   Mostly Cloudy
1:55 AM 50.0 °F 50.0 °F 100% 30.04 in 10.0 mi Calm Calm - N/A   Scattered Clouds
2:15 AM 50.0 °F 50.0 °F 100% 30.03 in 10.0 mi Calm Calm - N/A   Mostly Cloudy
2:35 AM 50.0 °F 50.0 °F 100% 30.04 in 10.0 mi Calm Calm - N/A   Scattered Clouds
2:55 AM 50.0 °F 50.0 °F 100% 30.04 in 7.0 mi Calm Calm - N/A   Mostly Cloudy
3:15 AM 50.0 °F 50.0 °F 100% 30.05 in 10.0 mi Calm Calm - N/A   Mostly Cloudy
3:35 AM 50.0 °F 50.0 °F 100% 30.05 in 10.0 mi Calm Calm - N/A   Mostly Cloudy
3:55 AM 50.0 °F 50.0 °F 100% 30.04 in 10.0 mi Calm Calm - N/A   Mostly Cloudy
4:15 AM 50.0 °F 50.0 °F 100% 30.03 in 10.0 mi Calm Calm - N/A   Mostly Cloudy
4:35 AM 50.0 °F 50.0 °F 100% 30.04 in 10.0 mi Calm Calm - N/A   Mostly Cloudy
4:55 AM 50.0 °F 50.0 °F 100% 30.03 in 10.0 mi Calm Calm - N/A   Mostly Cloudy
5:15 AM 48.2 °F 48.2 °F 100% 30.04 in 10.0 mi North - - N/A   Mostly Cloudy
5:35 AM 48.2 °F 48.2 °F 100% 30.04 in 10.0 mi Calm Calm - N/A   Overcast
5:55 AM 48.2 °F 48.2 °F 100% 30.04 in 10.0 mi Calm Calm - N/A   Partly Cloudy
6:15 AM 48.2 °F 48.2 °F 100% 30.03 in 10.0 mi Calm Calm - N/A   Clear
6:35 AM 48.2 °F 48.2 °F 100% 30.02 in 10.0 mi Calm Calm - N/A   Clear
6:55 AM 46.4 °F 46.4 °F 100% 30.02 in 10.0 mi Calm Calm - N/A   Clear
7:15 AM 48.2 °F 48.2 °F 100% 30.01 in 10.0 mi Calm Calm - N/A   Clear
7:35 AM 48.2 °F 48.2 °F 100% 30.01 in 10.0 mi Calm Calm - N/A   Clear
7:55 AM 46.4 °F 46.4 °F 100% 30.01 in 8.0 mi Calm Calm - N/A   Clear
8:15 AM 46.4 °F 46.4 °F 100% 30.02 in 10.0 mi Calm Calm - N/A   Clear
8:35 AM 46.4 °F 46.4 °F 100% 30.02 in 10.0 mi Calm Calm - N/A   Clear
8:55 AM 48.2 °F 48.2 °F 100% 30.03 in 10.0 mi ESE 3.5 mph - N/A   Clear
9:15 AM 48.2 °F 48.2 °F 100% 30.03 in 10.0 mi Calm Calm - N/A   Clear
9:35 AM 50.0 °F 50.0 °F 100% 30.03 in 10.0 mi Calm Calm - N/A   Clear
9:55 AM 51.8 °F 51.8 °F 100% 30.03 in 10.0 mi Calm Calm - N/A   Clear
10:15 AM 53.6 °F 53.6 °F 100% 30.03 in 10.0 mi Calm Calm - N/A   Clear
10:35 AM 55.4 °F 50.0 °F 82% 30.03 in 10.0 mi Calm Calm - N/A   Clear
10:55 AM 55.4 °F 50.0 °F 82% 30.03 in 10.0 mi Calm Calm - N/A   Clear
11:15 AM 55.4 °F 50.0 °F 82% 30.03 in 10.0 mi Calm Calm - N/A   Clear
11:35 AM 55.4 °F 48.2 °F 77% 30.03 in 10.0 mi Calm Calm - N/A   Partly Cloudy
11:55 AM 57.2 °F 50.0 °F 77% 30.02 in 10.0 mi Calm Calm - N/A   Partly Cloudy
12:15 PM 57.2 °F 50.0 °F 77% 30.02 in 10.0 mi Calm Calm - N/A   Partly Cloudy
12:35 PM 57.2 °F 50.0 °F 77% 30.01 in 10.0 mi Calm Calm - N/A   Clear
12:55 PM 57.2 °F 50.0 °F 77% 30.01 in 10.0 mi Calm Calm - N/A   Clear
1:15 PM 59.0 °F 51.8 °F 77% 30.00 in 10.0 mi Calm Calm - N/A   Partly Cloudy
1:35 PM 59.0 °F 51.8 °F 77% 29.99 in 10.0 mi Calm Calm - N/A   Partly Cloudy
1:55 PM 59.0 °F 50.0 °F 72% 29.99 in 10.0 mi Calm Calm - N/A   Partly Cloudy
2:15 PM 59.0 °F 50.0 °F 72% 29.99 in 10.0 mi Calm Calm - N/A   Partly Cloudy
2:35 PM 59.0 °F 50.0 °F 72% 29.99 in 10.0 mi Calm Calm - N/A   Partly Cloudy
2:55 PM 59.0 °F 50.0 °F 72% 29.99 in 10.0 mi Calm Calm - N/A   Mostly Cloudy
3:15 PM 59.0 °F 51.8 °F 77% 29.99 in 10.0 mi Calm Calm - N/A   Mostly Cloudy
3:35 PM 57.2 °F 53.6 °F 88% 29.99 in 10.0 mi Calm Calm - N/A   Partly Cloudy
3:55 PM 57.2 °F 51.8 °F 82% 30.00 in 10.0 mi Calm Calm - N/A Rain Light Rain
4:15 PM 55.4 °F 53.6 °F 94% 29.99 in 7.0 mi North 3.5 mph - 0.01 in Rain Light Rain
4:35 PM 55.4 °F 53.6 °F 94% 29.98 in 9.0 mi Calm Calm - 0.02 in Rain Light Rain
4:55 PM 53.6 °F 53.6 °F 100% 29.99 in 9.0 mi West 3.5 mph - 0.03 in Rain Light Rain
5:15 PM 53.6 °F 53.6 °F 100% 30.00 in 8.0 mi Calm Calm - 0.01 in Rain Light Rain
5:35 PM 53.6 °F 53.6 °F 100% 29.99 in 7.0 mi Calm Calm - 0.02 in Rain Light Rain
5:55 PM 53.6 °F 53.6 °F 100% 29.99 in 5.0 mi Calm Calm - 0.03 in Rain Light Rain
6:15 PM 53.6 °F 53.6 °F 100% 29.99 in 7.0 mi Calm Calm - N/A Rain Light Rain
6:35 PM 53.6 °F 53.6 °F 100% 29.99 in 7.0 mi Calm Calm - N/A   Mostly Cloudy
6:55 PM 53.6 °F 53.6 °F 100% 30.00 in 6.0 mi Calm Calm - N/A   Mostly Cloudy
7:15 PM 53.6 °F 53.6 °F 100% 29.99 in 6.0 mi Calm Calm - N/A   Scattered Clouds
7:35 PM 53.6 °F 53.6 °F 100% 29.99 in 5.0 mi Calm Calm - N/A   Scattered Clouds
7:55 PM 51.8 °F 51.8 °F 100% 29.98 in 8.0 mi SSE 3.5 mph - N/A   Mostly Cloudy
8:15 PM 51.8 °F 51.8 °F 100% 29.98 in 9.0 mi Calm Calm - N/A   Scattered Clouds
8:35 PM 51.8 °F 51.8 °F 100% 29.99 in 10.0 mi Calm Calm - N/A   Mostly Cloudy
8:55 PM 51.8 °F 51.8 °F 100% 29.98 in 4.0 mi Calm Calm - N/A   Mostly Cloudy
9:15 PM 51.8 °F 51.8 °F 100% 29.98 in 5.0 mi Calm Calm - N/A Rain Light Rain
9:35 PM 51.8 °F 51.8 °F 100% 29.98 in 3.0 mi Calm Calm - N/A Rain Light Rain
9:55 PM 51.8 °F 51.8 °F 100% 29.97 in 9.0 mi Calm Calm - 0.01 in Rain Light Rain
10:15 PM 53.6 °F 53.6 °F 100% 29.97 in 10.0 mi Calm Calm - N/A   Mostly Cloudy
10:35 PM 51.8 °F 51.8 °F 100% 29.98 in 10.0 mi Calm Calm - N/A   Mostly Cloudy
10:55 PM 51.8 °F 51.8 °F 100% 29.97 in 5.0 mi Calm Calm - N/A Rain Light Rain
11:15 PM 51.8 °F 51.8 °F 100% 29.98 in 7.0 mi Calm Calm - N/A Rain Light Rain
11:35 PM 51.8 °F 51.8 °F 100% 29.97 in 10.0 mi Calm Calm - N/A   Overcast
11:55 PM 51.8 °F 51.8 °F 100% 29.98 in 5.0 mi Calm Calm - N/A   Overcast